Tracking 30995 objects as of 5-Jul-2025
HD Live streaming from Space Station
objects crossing your sky now

CZ-6A DEB

Track CZ-6A DEB now!
10-day predictions


NORAD ID: 54267
Int'l Code: 2022-151J
Perigee: 685.8 km
Apogee: 813.1 km
Inclination: 98.8 °
Period: 99.7 minutes
Semi major axis: 7120 km
RCS: Unknown
Launch date: November 11, 2022
Source: People's Republic of China (PRC)
Launch site: Taiyaun Space Center, China (TSC)

Note: This is SATELLITE DEBRIS
Your satellite tracking list
Your tracking list is empty




NASA's NSSDC Master Catalog

Two Line Element Set (TLE):
1 54267U 22151J   25186.69806054  .00002780  00000-0  77390-3 0  9991
2 54267  98.8331 244.0338 0089383 232.5160 126.7878 14.44920957139122
Source of the keplerian elements: AFSPC